Regional Weather Roundup
Issued by NWS Albany, NY

Home | Current Version | Previous Version | Text Only | Print | Product List | Glossary On
Versions: 1 2 3 4 5 6 7 8 9 10 11 12 13 14 15 16 17 18 19 20 21 22 23 24 25 26 27
000
ASUS41 KALY 281510
RWRALY

NEW YORK STATE HOURLY WEATHER ROUNDUP
NATIONAL WEATHER SERVICE ALBANY NY
1100 AM EDT TUE MAR 28 2017

NOTE: "FAIR" INDICATES FEW OR NO CLOUDS BELOW 12,000 FEET WITH NO
SIGNIFICANT WEATHER AND/OR NO OBSTRUCTIONS TO VISIBILITY.

NYZ032-033-038>043-046>054-057>066-NYZ062>081-082-084-281600-
EAST


CITY           SKY/WX    TMP DP  RH WIND       PRES   REMARKS
ALBANY         CLOUDY    49  42  77 S9        29.95R
GLENS FALLS    CLOUDY    42  40  92 CALM      29.94R FOG
POUGHKEEPSIE   CLOUDY    44  41  89 CALM      29.95R
NEWBURGH       LGT RAIN  45  45 100 E7        29.96R FOG
MONTGOMERY     CLOUDY    45  43  93 N3        29.93S FOG
WHITE PLAINS   LGT RAIN  42  40  92 E6        29.96R VSB 1
ISLIP          CLOUDY    46  44  93 E13       29.95R
NEW YORK CITY  CLOUDY    43  40  89 NE5       29.99R FOG
CENTRAL PARK   LGT RAIN  43  42  97 NE10      29.99S VSB 1
$$

NYZ005>009-017-018-044>046-055-056-281600-
CENTRAL


CITY           SKY/WX    TMP DP  RH WIND       PRES   REMARKS
FULTON         CLOUDY    47  44  90 CALM      29.92R
SYRACUSE       PTSUNNY   47  43  86 S3        29.91F
ROME           PTSUNNY   47  43  86 CALM      29.93S
ELMIRA         LGT RAIN  52  48  86 CALM      29.90R
BINGHAMTON     LGT RAIN  45  45 100 NE3       29.89S VSB 1/4
MONTICELLO     CLOUDY    46  45  93 E6        29.93R VSB<1/4
$$

NYZ026>034-041>043-087-281600-
NORTH


CITY           SKY/WX    TMP DP  RH WIND       PRES   REMARKS
WATERTOWN      CLOUDY    43  43 100 N8        29.94R FOG
FORT DRUM      NOT AVBL
MASSENA        LGT RAIN  37  36  96 W5        29.95R FOG     WCI  33
SARANAC LAKE   CLOUDY    47  47 100 SW8       29.87R
PLATTSBURGH    CLOUDY    40  37  89 CALM      29.89S
$$

NYZ001>004-010>016-019>021-085-281600-
WEST


CITY           SKY/WX    TMP DP  RH WIND       PRES   REMARKS
NIAGARA FALLS  CLOUDY    45  38  76 N10       29.96S
BUFFALO        CLOUDY    46  40  79 N9        29.95R
DUNKIRK        FOG       42  42 100 N6        29.96R VSB<1/4
JAMESTOWN      CLOUDY    48  46  93 N3        29.91F VSB<1/4
WELLSVILLE     LGT RAIN  50  48  93 N3        29.92S FOG
ROCHESTER      CLOUDY    46  45  96 N10       29.94S
PENN YAN       CLOUDY    53  47  79 NW6       29.92R
$$

             KEY
       WCI = WIND CHILL INDEX
       VSB = VISIBILITY
       HX  = HEAT INDEX
$$




USA.gov is the U.S. government's official web portal to all federal, state and local government web resources and services.